| time (UTC) | temp C | wind direction | speed KPH | gust KPH | rain 1hr cm | rain 24hr cm | rain mn cm | humidity % | barometer mb |
| 20260503033942 | 1 | 37 | 0.0 | 1.6 | 0.00 | 0.08 | 0.08 | 86 | 1015.5 |
| 20260503033439 | 1 | 29 | 0.0 | 1.6 | 0.00 | 0.08 | 0.08 | 85 | 1015.5 |
| 20260503032937 | 1 | 28 | 0.0 | 0.0 | 0.00 | 0.08 | 0.08 | 84 | 1015.5 |
| 20260503032435 | 1 | 349 | 1.6 | 1.6 | 0.00 | 0.08 | 0.08 | 84 | 1015.6 |
| 20260503031932 | 1 | 30 | 0.0 | 0.0 | 0.00 | 0.08 | 0.08 | 84 | 1015.5 |
| 20260503031430 | 1 | 31 | 0.0 | 1.6 | 0.00 | 0.08 | 0.08 | 82 | 1015.7 |
| 20260503030926 | 1 | 31 | 0.0 | 0.0 | 0.00 | 0.08 | 0.08 | 82 | 1015.7 |
| 20260503030423 | 1 | 31 | 0.0 | 0.0 | 0.00 | 0.08 | 0.08 | 81 | 1015.7 |
| 20260503025920 | 2 | 31 | 0.0 | 0.0 | 0.00 | 0.08 | 0.08 | 81 | 1015.8 |
| 20260503025417 | 1 | 31 | 0.0 | 0.0 | 0.00 | 0.08 | 0.08 | 81 | 1015.8 |
| 20260503024914 | 2 | 31 | 0.0 | 0.0 | 0.00 | 0.08 | 0.08 | 81 | 1015.8 |
| 20260503024411 | 2 | 31 | 0.0 | 0.0 | 0.00 | 0.08 | 0.08 | 79 | 1015.8 |
| 20260503023908 | 2 | 30 | 0.0 | 0.0 | 0.00 | 0.08 | 0.08 | 79 | 1015.6 |
| 20260503023404 | 2 | 30 | 0.0 | 0.0 | 0.00 | 0.08 | 0.08 | 76 | 1015.8 |
| 20260503022902 | 2 | 49 | 0.0 | 0.0 | 0.00 | 0.08 | 0.08 | 77 | 1015.9 |
| 20260503022356 | 3 | 50 | 0.0 | 0.0 | 0.00 | 0.08 | 0.08 | 74 | 1015.8 |
| 20260503021853 | 3 | 51 | 0.0 | 0.0 | 0.00 | 0.08 | 0.08 | 73 | 1016.0 |
| 20260503021349 | 3 | 51 | 0.0 | 0.0 | 0.00 | 0.08 | 0.08 | 72 | 1015.7 |
| 20260503020846 | 3 | 51 | 0.0 | 0.0 | 0.00 | 0.08 | 0.08 | 75 | 1015.8 |
| 20260503020344 | 3 | 51 | 0.0 | 0.0 | 0.00 | 0.08 | 0.08 | 75 | 1015.8 |
| 20260503015840 | 3 | 51 | 0.0 | 0.0 | 0.00 | 0.08 | 0.08 | 75 | 1015.8 |
| 20260503015337 | 3 | 52 | 0.0 | 0.0 | 0.00 | 0.08 | 0.08 | 71 | 1015.9 |
| 20260503014833 | 3 | 51 | 0.0 | 0.0 | 0.00 | 0.08 | 0.08 | 72 | 1015.7 |
| 20260503014331 | 3 | 51 | 0.0 | 0.0 | 0.00 | 0.08 | 0.08 | 68 | 1015.8 |
| 20260503013828 | 3 | 50 | 0.0 | 1.6 | 0.00 | 0.08 | 0.08 | 68 | 1015.8 |
| 20260503013325 | 4 | 55 | 0.0 | 0.0 | 0.00 | 0.08 | 0.08 | 71 | 1015.6 |
| 20260503012822 | 4 | 55 | 0.0 | 0.0 | 0.00 | 0.08 | 0.08 | 70 | 1015.6 |
| 20260503012320 | 4 | 56 | 0.0 | 0.0 | 0.00 | 0.08 | 0.08 | 70 | 1015.9 |
| 20260503011816 | 5 | 56 | 0.0 | 0.0 | 0.00 | 0.08 | 0.08 | 68 | 1016.0 |
| 20260503011313 | 5 | 55 | 0.0 | 1.6 | 0.00 | 0.08 | 0.08 | 69 | 1015.9 |
| 20260503010810 | 5 | 57 | 0.0 | 0.0 | 0.00 | 0.08 | 0.08 | 68 | 1015.6 |
| 20260503010307 | 5 | 58 | 0.0 | 0.0 | 0.00 | 0.08 | 0.08 | 65 | 1015.6 |
| 20260503005804 | 5 | 58 | 0.0 | 0.0 | 0.00 | 0.08 | 0.08 | 65 | 1015.5 |
| 20260503005304 | 5 | 58 | 0.0 | 0.0 | 0.00 | 0.08 | 0.08 | 68 | 1015.5 |
| 20260503004757 | 5 | 58 | 0.0 | 0.0 | 0.00 | 0.08 | 0.08 | 67 | 1015.4 |
| 20260503004255 | 5 | 58 | 0.0 | 0.0 | 0.00 | 0.08 | 0.08 | 63 | 1015.4 |
| 20260503003752 | 5 | 59 | 0.0 | 1.6 | 0.00 | 0.08 | 0.08 | 63 | 1015.2 |
| 20260503003249 | 6 | 59 | 0.0 | 0.0 | 0.00 | 0.08 | 0.08 | 66 | 1015.1 |
| 20260503002746 | 6 | 60 | 0.0 | 1.6 | 0.00 | 0.08 | 0.08 | 63 | 1015.1 |
| 20260503002243 | 6 | 59 | 0.0 | 0.0 | 0.00 | 0.08 | 0.08 | 63 | 1015.0 |
| 20260503001739 | 6 | 61 | 0.0 | 0.0 | 0.00 | 0.08 | 0.08 | 62 | 1015.0 |
| 20260503001235 | 6 | 62 | 0.0 | 1.6 | 0.00 | 0.08 | 0.08 | 64 | 1015.0 |
| 20260503000734 | 6 | 63 | 0.0 | 0.0 | 0.00 | 0.08 | 0.08 | 64 | 1015.0 |
| 20260503000233 | 7 | 61 | 0.0 | 1.6 | 0.00 | 0.08 | 0.08 | 61 | 1014.7 |
| 20260502235727 | 7 | 46 | 0.0 | 1.6 | 0.00 | 0.08 | 0.08 | 57 | 1014.6 |
| 20260502235225 | 7 | 47 | 0.0 | 1.6 | 0.00 | 0.08 | 0.08 | 57 | 1014.8 |
| 20260502234721 | 7 | 52 | 0.0 | 1.6 | 0.00 | 0.08 | 0.08 | 53 | 1014.8 |
| 20260502234219 | 7 | 60 | 0.0 | 1.6 | 0.00 | 0.08 | 0.08 | 52 | 1014.7 |
| 20260502233714 | 8 | 44 | 0.0 | 1.6 | 0.00 | 0.08 | 0.08 | 52 | 1014.5 |
| 20260502233211 | 8 | 52 | 0.0 | 1.6 | 0.00 | 0.08 | 0.08 | 51 | 1014.8 |
| 20260502232707 | 8 | 31 | 0.0 | 1.6 | 0.00 | 0.08 | 0.08 | 53 | 1014.7 |
| 20260502232205 | 8 | 40 | 0.0 | 4.8 | 0.00 | 0.08 | 0.08 | 43 | 1014.4 |
| 20260502231701 | 9 | 42 | 0.0 | 3.2 | 0.00 | 0.08 | 0.08 | 46 | 1014.4 |
| 20260502231159 | 9 | 67 | 0.0 | 1.6 | 0.00 | 0.08 | 0.08 | 45 | 1014.6 |
| 20260502230657 | 9 | 47 | 1.6 | 1.6 | 0.00 | 0.08 | 0.08 | 47 | 1014.4 |
| 20260502230155 | 9 | 134 | 1.6 | 4.8 | 0.00 | 0.08 | 0.08 | 45 | 1014.3 |
| 20260502225651 | 10 | 87 | 3.2 | 12.9 | 0.00 | 0.08 | 0.08 | 41 | 1014.4 |
| 20260502225149 | 10 | 15 | 3.2 | 4.8 | 0.00 | 0.08 | 0.08 | 44 | 1014.4 |
| 20260502224644 | 11 | 45 | 1.6 | 4.8 | 0.00 | 0.08 | 0.08 | 45 | 1014.4 |
| 20260502224141 | 11 | 18 | 0.0 | 3.2 | 0.00 | 0.08 | 0.08 | 37 | 1014.3 |
| 20260502223639 | 11 | 29 | 0.0 | 3.2 | 0.00 | 0.08 | 0.08 | 39 | 1014.2 |
| 20260502223137 | 11 | 34 | 1.6 | 12.9 | 0.00 | 0.08 | 0.08 | 43 | 1014.1 |
| 20260502222634 | 12 | 345 | 3.2 | 4.8 | 0.00 | 0.08 | 0.08 | 36 | 1014.0 |
| 20260502222131 | 12 | 55 | 1.6 | 4.8 | 0.00 | 0.08 | 0.08 | 37 | 1014.2 |
| 20260502221626 | 12 | 357 | 0.0 | 9.7 | 0.00 | 0.08 | 0.08 | 40 | 1014.1 |
| 20260502221123 | 12 | 272 | 1.6 | 3.2 | 0.00 | 0.08 | 0.08 | 41 | 1013.9 |
| 20260502220620 | 11 | 21 | 0.0 | 4.8 | 0.00 | 0.08 | 0.08 | 40 | 1013.9 |
| 20260502220116 | 11 | 332 | 1.6 | 8.0 | 0.00 | 0.08 | 0.08 | 43 | 1013.9 |
| 20260502215613 | 11 | 62 | 1.6 | 3.2 | 0.00 | 0.08 | 0.08 | 40 | 1014.0 |
| 20260502215110 | 10 | 61 | 0.0 | 4.8 | 0.00 | 0.08 | 0.08 | 46 | 1013.9 |
| 20260502214607 | 11 | 350 | 4.8 | 16.1 | 0.00 | 0.08 | 0.08 | 41 | 1014.0 |
| 20260502214104 | 11 | 322 | 3.2 | 8.0 | 0.00 | 0.08 | 0.08 | 40 | 1014.1 |
| 20260502213602 | 10 | 26 | 4.8 | 11.3 | 0.00 | 0.08 | 0.08 | 43 | 1014.0 |
| 20260502213059 | 10 | 19 | 3.2 | 4.8 | 0.00 | 0.08 | 0.08 | 44 | 1014.0 |
| 20260502212558 | 10 | 43 | 0.0 | 4.8 | 0.00 | 0.08 | 0.08 | 41 | 1014.0 |
| 20260502212055 | 11 | 264 | 1.6 | 4.8 | 0.00 | 0.08 | 0.08 | 42 | 1014.1 |
| 20260502211550 | 11 | 312 | 4.8 | 9.7 | 0.00 | 0.08 | 0.08 | 42 | 1013.7 |
| 20260502211048 | 11 | 352 | 6.4 | 12.9 | 0.00 | 0.08 | 0.08 | 40 | 1013.8 |
| 20260502210545 | 11 | 320 | 4.8 | 8.0 | 0.00 | 0.08 | 0.08 | 38 | 1013.9 |
| 20260502210042 | 11 | 43 | 3.2 | 3.2 | 0.00 | 0.08 | 0.08 | 38 | 1013.9 |
| 20260502205538 | 11 | 271 | 1.6 | 12.9 | 0.00 | 0.08 | 0.08 | 40 | 1013.8 |
| 20260502205036 | 12 | 325 | 9.7 | 12.9 | 0.00 | 0.08 | 0.08 | 37 | 1013.8 |
| 20260502204532 | 12 | 32 | 1.6 | 8.0 | 0.00 | 0.08 | 0.08 | 37 | 1013.9 |
| 20260502204030 | 12 | 273 | 8.0 | 11.3 | 0.00 | 0.08 | 0.08 | 38 | 1013.8 |
| 20260502203527 | 12 | 287 | 3.2 | 9.7 | 0.00 | 0.08 | 0.08 | 38 | 1013.9 |
| 20260502203024 | 11 | 258 | 6.4 | 9.7 | 0.00 | 0.08 | 0.08 | 39 | 1013.8 |
| 20260502202520 | 13 | 297 | 3.2 | 11.3 | 0.00 | 0.08 | 0.08 | 35 | 1013.9 |
| 20260502202019 | 12 | 260 | 4.8 | 11.3 | 0.00 | 0.08 | 0.08 | 37 | 1013.8 |
| 20260502201514 | 12 | 267 | 4.8 | 8.0 | 0.00 | 0.08 | 0.08 | 37 | 1013.9 |
| 20260502201011 | 12 | 292 | 4.8 | 9.7 | 0.00 | 0.08 | 0.08 | 39 | 1014.0 |
| 20260502200507 | 12 | 259 | 6.4 | 11.3 | 0.00 | 0.08 | 0.08 | 36 | 1013.7 |
| 20260502200005 | 13 | 7 | 1.6 | 14.5 | 0.00 | 0.08 | 0.08 | 41 | 1014.0 |
| 20260502195502 | 13 | 302 | 4.8 | 9.7 | 0.00 | 0.08 | 0.08 | 37 | 1013.8 |
| 20260502194958 | 13 | 327 | 8.0 | 12.9 | 0.00 | 0.08 | 0.08 | 35 | 1013.8 |
| 20260502194455 | 13 | 330 | 4.8 | 4.8 | 0.00 | 0.08 | 0.08 | 37 | 1014.1 |
| 20260502193950 | 12 | 12 | 3.2 | 8.0 | 0.00 | 0.08 | 0.08 | 37 | 1014.1 |
| 20260502193448 | 12 | 350 | 1.6 | 4.8 | 0.00 | 0.08 | 0.08 | 40 | 1014.2 |
| 20260502192944 | 12 | 263 | 1.6 | 11.3 | 0.00 | 0.08 | 0.08 | 39 | 1014.2 |
| 20260502192441 | 12 | 19 | 3.2 | 16.1 | 0.00 | 0.08 | 0.08 | 37 | 1014.1 |
| 20260502191937 | 12 | 270 | 3.2 | 4.8 | 0.00 | 0.08 | 0.08 | 38 | 1014.3 |
| 20260502191435 | 12 | 323 | 4.8 | 4.8 | 0.00 | 0.08 | 0.08 | 39 | 1014.3 |
| 20260502190933 | 12 | 350 | 3.2 | 14.5 | 0.00 | 0.08 | 0.08 | 38 | 1014.5 |
| 20260502190430 | 12 | 353 | 8.0 | 11.3 | 0.00 | 0.08 | 0.08 | 41 | 1014.4 |
| 20260502185926 | 12 | 291 | 6.4 | 14.5 | 0.00 | 0.08 | 0.08 | 38 | 1014.2 |
| 20260502185421 | 12 | 29 | 4.8 | 8.0 | 0.00 | 0.08 | 0.08 | 39 | 1014.3 |
| 20260502184918 | 12 | 297 | 1.6 | 3.2 | 0.00 | 0.08 | 0.08 | 38 | 1014.2 |
| 20260502184409 | 13 | 356 | 3.2 | 4.8 | 0.00 | 0.08 | 0.08 | 38 | 1014.4 |
| 20260502183905 | 12 | 286 | 4.8 | 4.8 | 0.00 | 0.08 | 0.08 | 39 | 1014.3 |
| 20260502183401 | 13 | 11 | 3.2 | 4.8 | 0.00 | 0.08 | 0.08 | 39 | 1014.5 |
| 20260502182857 | 13 | 291 | 3.2 | 11.3 | 0.00 | 0.08 | 0.08 | 40 | 1014.4 |
| 20260502182352 | 12 | 319 | 1.6 | 4.8 | 0.00 | 0.08 | 0.08 | 44 | 1014.3 |
| 20260502181849 | 12 | 278 | 3.2 | 12.9 | 0.00 | 0.08 | 0.08 | 40 | 1014.5 |
| 20260502181348 | 12 | 37 | 0.0 | 4.8 | 0.00 | 0.08 | 0.08 | 41 | 1014.3 |
| 20260502180845 | 12 | 5 | 1.6 | 4.8 | 0.00 | 0.08 | 0.08 | 38 | 1014.4 |
| 20260502180342 | 12 | 83 | 1.6 | 11.3 | 0.00 | 0.08 | 0.08 | 44 | 1014.2 |
| 20260502170301 | 12 | 301 | 4.8 | 4.8 | 0.00 | 0.08 | 0.08 | 43 | 1014.6 |
| 20260502164249 | 12 | 330 | 4.8 | 8.0 | 0.00 | 0.08 | 0.08 | 41 | 1014.6 |
| 20260502163744 | 12 | 311 | 4.8 | 4.8 | 0.00 | 0.08 | 0.08 | 45 | 1014.6 |
| 20260502163241 | 11 | 278 | 9.7 | 12.9 | 0.00 | 0.08 | 0.08 | 40 | 1014.6 |
| 20260502162738 | 12 | 282 | 11.3 | 14.5 | 0.00 | 0.08 | 0.08 | 44 | 1014.6 |
| 20260502162234 | 12 | 64 | 3.2 | 3.2 | 0.00 | 0.08 | 0.08 | 46 | 1014.6 |
| 20260502161731 | 11 | 280 | 4.8 | 9.7 | 0.00 | 0.08 | 0.08 | 46 | 1014.7 |
| 20260502161222 | 11 | 298 | 6.4 | 12.9 | 0.00 | 0.08 | 0.08 | 49 | 1014.9 |
| 20260502160721 | 11 | 292 | 3.2 | 4.8 | 0.00 | 0.08 | 0.08 | 51 | 1014.8 |
| 20260502160219 | 11 | 260 | 4.8 | 8.0 | 0.00 | 0.08 | 0.08 | 50 | 1014.8 |
| 20260502152127 | 11 | 309 | 6.4 | 9.7 | 0.00 | 0.08 | 0.08 | 52 | 1015.2 |
| 20260502151624 | 11 | 236 | 4.8 | 11.3 | 0.00 | 0.08 | 0.08 | 54 | 1015.1 |
| 20260502151121 | 11 | 286 | 12.9 | 16.1 | 0.00 | 0.08 | 0.08 | 50 | 1015.1 |
| 20260502150619 | 11 | 289 | 6.4 | 9.7 | 0.00 | 0.08 | 0.08 | 56 | 1015.0 |
| 20260502150115 | 11 | 321 | 4.8 | 11.3 | 0.00 | 0.08 | 0.08 | 59 | 1015.1 |
| 20260502130503 | 9 | 344 | 3.2 | 11.3 | 0.00 | 0.08 | 0.08 | 72 | 1015.2 |
| 20260502123446 | 6 | 325 | 1.6 | 3.2 | 0.00 | 0.08 | 0.08 | 83 | 1015.4 |
| 20260502122943 | 6 | 30 | 1.6 | 3.2 | 0.00 | 0.08 | 0.08 | 84 | 1015.6 |
| 20260502122439 | 6 | 250 | 3.2 | 8.0 | 0.00 | 0.08 | 0.08 | 84 | 1015.4 |
| 20260502121937 | 6 | 60 | 3.2 | 3.2 | 0.00 | 0.08 | 0.08 | 85 | 1015.5 |
| 20260502121434 | 6 | 11 | 1.6 | 4.8 | 0.00 | 0.08 | 0.08 | 86 | 1015.4 |
| 20260502120932 | 6 | 7 | 1.6 | 4.8 | 0.00 | 0.08 | 0.08 | 86 | 1015.5 |
| 20260502120428 | 7 | 37 | 0.0 | 1.6 | 0.00 | 0.08 | 0.08 | 87 | 1015.5 |
| 20260502115925 | 7 | 310 | 1.6 | 3.2 | 0.00 | 0.08 | 0.08 | 85 | 1015.2 |
| 20260502115422 | 6 | 68 | 0.0 | 1.6 | 0.00 | 0.08 | 0.08 | 92 | 1015.5 |
| 20260502114918 | 6 | 62 | 0.0 | 1.6 | 0.00 | 0.08 | 0.08 | 95 | 1015.5 |
| 20260502114415 | 6 | 31 | 0.0 | 0.0 | 0.00 | 0.08 | 0.08 | 97 | 1015.5 |
| 20260502113912 | 5 | 31 | 0.0 | 0.0 | 0.00 | 0.08 | 0.08 | 97 | 1015.5 |
| 20260502113410 | 6 | 30 | 0.0 | 1.6 | 0.00 | 0.08 | 0.08 | 97 | 1015.6 |
| 20260502112909 | 6 | 54 | 0.0 | 0.0 | 0.00 | 0.08 | 0.08 | 98 | 1015.6 |
| 20260502112405 | 5 | 59 | 0.0 | 0.0 | 0.00 | 0.08 | 0.08 | 98 | 1015.4 |
| 20260502111903 | 6 | 36 | 0.0 | 0.0 | 0.00 | 0.08 | 0.08 | 98 | 1015.2 |
| 20260502111400 | 5 | 37 | 0.0 | 1.6 | 0.00 | 0.08 | 0.08 | 99 | 1015.4 |
| 20260502110857 | 5 | 34 | 0.0 | 0.0 | 0.00 | 0.08 | 0.08 | 99 | 1015.0 |
| 20260502110355 | 5 | 33 | 0.0 | 1.6 | 0.00 | 0.08 | 0.08 | 99 | 1015.2 |
| 20260502105852 | 5 | 39 | 0.0 | 0.0 | 0.00 | 0.08 | 0.08 | 99 | 1014.9 |
| 20260502105349 | 5 | 41 | 0.0 | 0.0 | 0.00 | 0.08 | 0.08 | 99 | 1014.9 |
| 20260502104847 | 5 | 37 | 0.0 | 1.6 | 0.00 | 0.08 | 0.08 | 99 | 1014.7 |
| 20260502104344 | 5 | 48 | 0.0 | 0.0 | 0.00 | 0.08 | 0.08 | 99 | 1014.8 |
| 20260502103841 | 5 | 50 | 0.0 | 0.0 | 0.00 | 0.08 | 0.08 | 99 | 1014.6 |
| 20260502103339 | 5 | 57 | 0.0 | 0.0 | 0.00 | 0.08 | 0.08 | 99 | 1014.7 |
| 20260502102836 | 5 | 37 | 0.0 | 0.0 | 0.00 | 0.08 | 0.08 | 99 | 1014.6 |
| 20260502102332 | 5 | 44 | 0.0 | 1.6 | 0.00 | 0.08 | 0.08 | 99 | 1014.5 |
| 20260502101830 | 5 | 39 | 0.0 | 0.0 | 0.00 | 0.08 | 0.08 | 99 | 1014.4 |
| 20260502101328 | 6 | 44 | 0.0 | 0.0 | 0.00 | 0.08 | 0.08 | 99 | 1014.3 |
| 20260502100826 | 6 | 41 | 0.0 | 0.0 | 0.00 | 0.08 | 0.08 | 99 | 1014.3 |
| 20260502100325 | 6 | 333 | 0.0 | 8.0 | 0.00 | 0.08 | 0.08 | 99 | 1014.2 |
| 20260502091258 | 7 | 34 | 0.0 | 0.0 | 0.00 | 0.08 | 0.08 | 99 | 1013.7 |
| 20260502090756 | 7 | 34 | 0.0 | 0.0 | 0.00 | 0.08 | 0.08 | 99 | 1013.8 |
| 20260502090253 | 7 | 34 | 0.0 | 0.0 | 0.00 | 0.08 | 0.08 | 99 | 1013.7 |
| 20260502071153 | 7 | 106 | 0.0 | 0.0 | 0.00 | 0.05 | 0.05 | 99 | 1014.2 |
| 20260502070651 | 7 | 106 | 0.0 | 0.0 | 0.00 | 0.05 | 0.05 | 99 | 1014.0 |
| 20260502070149 | 7 | 106 | 0.0 | 0.0 | 0.00 | 0.05 | 0.05 | 99 | 1014.1 |
| 20260502065647 | 7 | 106 | 0.0 | 0.0 | 0.00 | 0.05 | 0.05 | 99 | 1014.1 |
| 20260502065144 | 7 | 106 | 0.0 | 0.0 | 0.00 | 0.05 | 0.05 | 99 | 1014.0 |
| 20260502064643 | 7 | 107 | 0.0 | 0.0 | 0.00 | 0.05 | 0.05 | 99 | 1014.3 |
| 20260502064140 | 7 | 108 | 0.0 | 0.0 | 0.00 | 0.05 | 0.05 | 99 | 1014.4 |
| 20260502063638 | 7 | 108 | 0.0 | 0.0 | 0.00 | 0.05 | 0.05 | 99 | 1014.3 |
| 20260502063135 | 7 | 108 | 0.0 | 0.0 | 0.00 | 0.05 | 0.05 | 99 | 1014.3 |
| 20260502062632 | 7 | 109 | 0.0 | 0.0 | 0.00 | 0.05 | 0.05 | 99 | 1014.3 |
| 20260502062130 | 7 | 110 | 0.0 | 0.0 | 0.00 | 0.05 | 0.05 | 99 | 1014.3 |
| 20260502061628 | 7 | 194 | 1.6 | 1.6 | 0.00 | 0.05 | 0.05 | 99 | 1014.3 |
| 20260502061125 | 7 | 102 | 0.0 | 0.0 | 0.00 | 0.05 | 0.05 | 99 | 1014.2 |
| 20260502060625 | 7 | 136 | 0.0 | 1.6 | 0.00 | 0.05 | 0.05 | 99 | 1014.4 |
| 20260502060122 | 7 | 29 | 0.0 | 0.0 | 0.00 | 0.05 | 0.05 | 99 | 1014.3 |
| 20260502055620 | 7 | 29 | 0.0 | 0.0 | 0.00 | 0.05 | 0.05 | 99 | 1014.2 |
| 20260502055118 | 7 | 29 | 0.0 | 0.0 | 0.00 | 0.05 | 0.05 | 99 | 1014.1 |
| 20260502054617 | 7 | 29 | 0.0 | 0.0 | 0.00 | 0.05 | 0.05 | 99 | 1014.0 |
| 20260502054113 | 7 | 29 | 0.0 | 0.0 | 0.00 | 0.05 | 0.05 | 99 | 1014.2 |
| 20260502053610 | 7 | 29 | 0.0 | 0.0 | 0.00 | 0.05 | 0.05 | 99 | 1014.2 |
| 20260502053108 | 7 | 29 | 0.0 | 0.0 | 0.00 | 0.05 | 0.05 | 99 | 1014.2 |
| 20260502052606 | 7 | 29 | 1.6 | 1.6 | 0.00 | 0.05 | 0.05 | 99 | 1014.2 |
| 20260502052104 | 7 | 29 | 0.0 | 0.0 | 0.00 | 0.05 | 0.05 | 99 | 1014.4 |
| 20260502051602 | 7 | 29 | 0.0 | 0.0 | 0.00 | 0.05 | 0.05 | 99 | 1014.3 |
| 20260502051059 | 7 | 29 | 0.0 | 0.0 | 0.00 | 0.05 | 0.05 | 98 | 1014.3 |
| 20260502050555 | 7 | 29 | 0.0 | 0.0 | 0.00 | 0.05 | 0.05 | 98 | 1014.4 |
| 20260502050052 | 7 | 28 | 0.0 | 0.0 | 0.00 | 0.05 | 0.05 | 98 | 1014.1 |
| 20260502045548 | 7 | 28 | 0.0 | 1.6 | 0.00 | 0.05 | 0.05 | 98 | 1014.3 |
| 20260502045046 | 7 | 28 | 0.0 | 0.0 | 0.00 | 0.05 | 0.05 | 98 | 1014.3 |
| 20260502044542 | 7 | 28 | 0.0 | 1.6 | 0.00 | 0.05 | 0.05 | 98 | 1014.4 |
| 20260502044039 | 7 | 27 | 0.0 | 0.0 | 0.00 | 0.05 | 0.05 | 98 | 1014.4 |
| 20260502043537 | 7 | 25 | 0.0 | 0.0 | 0.00 | 0.05 | 0.05 | 98 | 1014.5 |
| 20260502043033 | 7 | 38 | 1.6 | 1.6 | 0.00 | 0.05 | 0.05 | 98 | 1014.4 |
| 20260502042528 | 7 | 66 | 0.0 | 1.6 | 0.00 | 0.05 | 0.05 | 98 | 1014.7 |
| 20260502042026 | 7 | 56 | 0.0 | 1.6 | 0.00 | 0.05 | 0.05 | 97 | 1014.6 |
| 20260502041523 | 7 | 83 | 0.0 | 1.6 | 0.30 | 0.05 | 0.05 | 97 | 1014.5 |
| 20260502041020 | 7 | 63 | 0.0 | 0.0 | 0.30 | 0.05 | 0.05 | 97 | 1014.8 |
| 20260502040516 | 7 | 60 | 0.0 | 1.6 | 0.13 | 0.00 | 0.00 | 97 | 1014.7 |
| 20260502040014 | 7 | 95 | 0.0 | 0.0 | 0.00 | 0.05 | 0.05 | 97 | 1014.8 |
| 20260502035509 | 7 | 95 | 0.0 | 0.0 | 0.00 | 0.05 | 0.05 | 96 | 1014.5 |
| 20260502035007 | 7 | 95 | 0.0 | 0.0 | 0.00 | 0.05 | 0.05 | 96 | 1014.5 |
| 20260502034505 | 7 | 95 | 0.0 | 0.0 | 0.00 | 0.05 | 0.05 | 96 | 1014.5 |